Indianapolis, IN

4:30 PM EST on November 15, 2019 (GMT -0500)
Indianapolis International

Weather History for KIND - September, 2019

Change the Weather History Date:

Tuesday, September 10, 2019

  Actual Average Record
Temperature  
Mean Temperature 80 °F 69 °F  
Max Temperature 92 °F 80 °F 96 °F (2013)
Min Temperature 67 °F 59 °F 40 °F (1969)
Degree Days  
Heating Degree Days 0 1  
Month to date heating degree days 0 6  
Since 1 July heating degree days 0 10  
Cooling Degree Days 15 5  
Month to date cooling degree days 67 65  
Year to date cooling degree days 1106 986  
Growing Degree Days 28 (Base 50)    
Moisture  
Dew Point 66 °F    
Average Humidity 69    
Maximum Humidity 93    
Minimum Humidity 44    
Precipitation  
Precipitation 0.00 in 0.11 in 2.60 in (1890)
Month to date precipitation T 1.01  
Year to date precipitation 36.55 30.34  
Snow  
Snow 0.00 in 0.00 in - ()
Month to date snowfall 0.0 0.0  
Since 1 July snowfall 0.0 0.0  
Since 1 September snowfall 0.0 0.0  
Snow Depth 0.00 in    
Sea Level Pressure  
Sea Level Pressure 30.14 in    
Wind  
Wind Speed 8 mph (South)    
Max Wind Speed 18 mph    
Max Gust Speed 25 mph    
Visibility 10 miles    
Events      
T = Trace of Precipitation, MM = Missing Value Source: NWS Daily Summary

Daily Weather History Graph

Daily Weather History Graph

Search for Another Location

Airport or City:

Astronomy

Sep. 10, 2019 Rise Set
Actual Time 7:21 AM EDT 8:02 PM EDT
Civil Twilight 6:54 AM EDT 8:29 PM EDT
Nautical Twilight 6:21 AM EDT 9:01 PM EDT
Astronomical Twilight 5:48 AM EDT 9:34 PM EDT
Moon 6:37 PM EDT (9/10) 3:47 AM EDT (9/10)
Length of Visible Light 13h 35m
Length of Day
12h 40m
Waxing Gibbous, 89% of the Moon is Illuminated
Sep 10
Waxing Gibbous
Sep 14
Full
Sep 21
Last Quarter
Sep 28
New
Oct 5
First Quarter

Hourly Weather History & Observations

Time (EDT) Temp. Heat Index Dew Point Humidity Pressure Visibility Wind Dir Wind Speed Gust Speed Precip Events Conditions
12:54 AM 72.0 °F - 64.9 °F 78% 30.14 in 10.0 mi ESE 6.9 mph - N/A   Clear
1:54 AM 71.1 °F - 64.9 °F 81% 30.14 in 10.0 mi ESE 8.1 mph - N/A   Partly Cloudy
2:54 AM 70.0 °F - 64.9 °F 84% 30.14 in 10.0 mi SE 5.8 mph - N/A   Scattered Clouds
3:54 AM 70.0 °F - 64.9 °F 84% 30.12 in 10.0 mi SE 11.5 mph - N/A   Scattered Clouds
4:54 AM 70.0 °F - 64.0 °F 81% 30.14 in 10.0 mi SE 9.2 mph - N/A   Clear
5:54 AM 69.1 °F - 64.0 °F 84% 30.14 in 10.0 mi SSE 8.1 mph - N/A   Partly Cloudy
6:54 AM 66.9 °F - 64.0 °F 90% 30.15 in 10.0 mi SE 6.9 mph - N/A   Mostly Cloudy
7:54 AM 68.0 °F - 64.0 °F 87% 30.16 in 10.0 mi SSE 10.4 mph - N/A   Mostly Cloudy
8:54 AM 71.1 °F - 64.9 °F 81% 30.17 in 10.0 mi SSE 6.9 mph - N/A   Mostly Cloudy
9:54 AM 75.9 °F - 66.0 °F 71% 30.17 in 10.0 mi SSE 6.9 mph - N/A   Mostly Cloudy
10:54 AM 80.1 °F 82.1 °F 66.0 °F 62% 30.16 in 10.0 mi South 9.2 mph - N/A   Mostly Cloudy
11:54 AM 84.0 °F 86.5 °F 66.9 °F 56% 30.16 in 10.0 mi South 9.2 mph - N/A   Scattered Clouds
12:54 PM 88.0 °F 91.4 °F 68.0 °F 51% 30.16 in 10.0 mi SW 10.4 mph 18.4 mph N/A   Scattered Clouds
1:54 PM 90.0 °F 93.6 °F 68.0 °F 48% 30.15 in 10.0 mi SSW 12.7 mph - N/A   Scattered Clouds
2:54 PM 91.0 °F 93.8 °F 66.0 °F 44% 30.14 in 10.0 mi WSW 15.0 mph - N/A   Scattered Clouds
3:54 PM 91.0 °F 93.8 °F 66.0 °F 44% 30.12 in 10.0 mi SW 8.1 mph - N/A   Mostly Cloudy
4:54 PM 90.0 °F 92.8 °F 66.9 °F 46% 30.11 in 10.0 mi SW 9.2 mph - N/A   Mostly Cloudy
5:54 PM 89.1 °F 92.1 °F 66.9 °F 48% 30.10 in 10.0 mi SSW 12.7 mph - N/A   Mostly Cloudy
6:54 PM 87.1 °F 90.6 °F 68.0 °F 53% 30.10 in 10.0 mi SSW 6.9 mph - N/A   Mostly Cloudy
7:54 PM 82.9 °F 85.8 °F 68.0 °F 60% 30.09 in 10.0 mi SSW 9.2 mph - N/A   Mostly Cloudy
8:54 PM 81.0 °F 84.1 °F 69.1 °F 67% 30.10 in 10.0 mi SSW 6.9 mph - N/A   Mostly Cloudy
9:54 PM 79.0 °F - 70.0 °F 74% 30.11 in 10.0 mi SSW 5.8 mph - N/A   Scattered Clouds
10:54 PM 78.1 °F - 69.1 °F 74% 30.13 in 10.0 mi South 5.8 mph - N/A   Scattered Clouds
11:54 PM 77.0 °F - 70.0 °F 79% 30.12 in 10.0 mi South 4.6 mph - N/A   Scattered Clouds